Vertical_Velocity
0 -0 3 -1 2 2 -5 -2 -5 -3 -12 3 2 -2 -1 1 2 -3 0 -3 -2 -1 2 -3 -3 -1 -1 0 -0 -1 -1 -1 -1 -1 -1 -1 -0 -1 -2 -6 -4 -4 -2 0
-13 4 2 -4 -0 0 -0 1 -12 4 -27 2 2 4 -2 -1 1 -3 -5 -1 -3 -1 -2 -1 -0 -2 -2 -2 -2 -1 -4 -2 -2 -2 -1 -1 -2 -1 -1 -3 -1 -1 -1 -0
-7 -1 -2 -8 -2 1 2 -0 7 -9 2 4 3 3 -5 -1 -3 -3 -1 -3 -3 -3 -1 -0 1 -0 -1 -0 -1 -2 -1 -1 -1 -2 -1 -1 -1 -1 -1 -0 -1 -1 -2 -1
-7 -2 -1 -2 -1 -1 -2 -1 -2 -4 3 0 -2 0 -2 -3 -3 -2 -1 -2 -4 -3 -3 -2 -1 -2 -3 -2 -0 -1 -1 -0 -1 -2 -3 -3 -3 -2 -2 -2 -2 -3 -3 -4
-1 -1 -14 -8 -3 -3 -0 -2 -2 -2 -0 -1 -2 -3 7 -5 -2 -3 -2 -3 -2 -1 -1 -1 -1 -0 -0 -1 -2 -2 -2 -3 -2 -1 -1 -1 -2 -1 -2 -1 -1 -2 -1 -2
1 0 -1 0 -1 -1 -1 -9 -2 -0 -0 0 -2 -3 -5 -0 -2 -3 -3 -2 -1 -2 -2 -1 -0 -0 -1 -1 -0 -0 -0 -1 -1 -0 0 -1 -1 -1 -1 -1 -0 -0 -1 -1
-1 -1 -10 2 -1 1 -0 -4 -2 -2 -2 -2 -2 -3 -1 -1 -2 -1 -1 -2 -2 -1 -1 -1 -1 -1 -1 -1 -0 -1 -0 -1 -1 1 2 2 2 1 1 1 0 0 1 1
2 -0 -12 -2 -2 -6 0 -1 1 1 -1 -2 -2 -2 -4 -3 -2 -2 -1 -1 -0 1 -0 -2 -1 -1 -1 -1 -1 -0 1 1 1 -1 -2 -2 -0 1 0 -0 -0 -1 -1 -1
-9 -2 0 -1 -1 -0 -1 -0 -2 -2 -1 -2 -1 -0 -2 1 -1 -1 -1 -1 -2 -1 -0 -2 -1 -1 -0 -1 -1 -0 0 -0 -0 -1 -1 -1 -1 0 1 1 1 1 1 1
1 8 -0 1 1 1 -2 -2 -1 -2 -1 -1 1 -1 0 -2 -1 -1 -1 0 -2 -0 1 2 -3 2 -0 -1 2 -1 -2 -3 -3 -1 -1 1 1 -0 -0 -0 -1 -1 -2 -2
-19 1 3 1 -2 2 2 0 0 -3 -2 -1 -4 3 -1 1 1 0 -0 -1 -3 -1 0 3 -3 -0 -2 -2 -5 -2 -2 -2 -1 -0 -1 -1 -1 -1 -1 -1 -1 0 1 1
-23 11 0 8 2 1 -1 -3 -1 1 -1 -3 -4 -1 -2 -0 -2 -0 -1 0 1 2 2 4 -3 0 1 -1 -1 -0 1 -3 -2 -2 -1 -1 -1 -0 -1 -1 -1 -0 1 1
-10 -0 5 1 -0 3 2 -0 -2 -1 0 1 1 -5 -5 -3 -0 -2 -0 2 2 -1 0 2 2 3 5 -1 -1 1 0 -0 -2 1 1 1 1 -1 -1 -2 -3 1 1 -2
-2 -0 -4 7 3 -1 -2 2 2 0 -1 -1 0 0 -1 -2 -1 -0 -0 -5 -4 -3 -0 -0 1 6 3 -3 -3 0 0 2 1 0 -2 -3 -3 -1 -2 -2 -0 -1 -2 -1
7 -2 0 -1 6 7 3 1 0 2 1 0 1 3 0 -1 1 -1 -3 -3 -2 0 2 -3 -5 2 -5 -4 -4 -1 1 6 3 2 1 -0 1 -0 0 -1 -2 -1 -1 2
-2 0 4 -1 6 2 2 4 0 2 4 0 2 1 1 2 1 -0 -3 -0 3 -1 -7 -9 -3 -5 -3 -0 -1 -2 -1 -1 -0 -0 1 2 3 1 2 3 0 -1 0 3
-12 3 3 1 -2 1 1 2 2 -3 -4 2 4 5 3 1 -0 -1 2 4 -0 -2 -3 -3 -1 2 -0 -5 -4 2 2 3 -3 -1 -2 -7 -3 -0 -2 -2 -3 0 1 -1
-0 3 -0 1 1 1 3 1 0 5 4 -2 -7 2 3 3 6 2 0 2 1 1 -0 2 4 1 2 1 -0 -0 -1 -1 1 2 3 3 -1 -1 1 -0 0 -2 1 -0
-1 0 -1 2 -1 2 6 1 3 5 3 7 0 -7 1 -1 -1 4 3 2 -4 1 5 -0 -1 -2 -2 -4 -1 1 2 3 3 3 3 1 0 3 0 0 1 2 1 -1
4 4 -0 -0 1 3 4 10 4 -3 7 6 4 1 -3 -5 -5 -4 -0 4 -0 1 -2 3 4 1 -0 -2 -4 -4 -4 -1 0 -1 -0 1 0 2 2 -0 0 1 2 1
-1 0 3 5 3 7 4 3 6 2 -1 -2 4 5 2 1 -1 -1 -5 -1 1 1 1 4 0 1 1 0 1 1 0 -3 -3 1 -1 -1 0 -1 -2 2 1 5 0 2
2 -2 4 3 5 7 9 6 4 2 2 5 -8 1 -2 4 1 -3 5 -8 3 1 1 3 4 4 2 4 1 -1 2 1 -1 -3 1 -0 -1 -1 -1 -1 -0 2 4 1
-10 -8 -7 -1 2 0 -2 1 2 0 3 -1 -1 2 -4 -3 1 1 3 2 -6 2 2 -2 1 -1 1 2 1 1 1 1 -0 -3 -3 -1 1 2 2 1 1 3 1 -1
4 4 8 0 -10 -3 1 -1 1 1 1 3 0 -5 -4 -5 -1 -2 -2 0 -1 -1 -0 -0 2 -2 -1 -0 1 -0 -4 2 1 -3 -1 -0 -1 -2 -3 -2 -0 4 3 1
3 5 3 4 1 4 -5 -3 -4 -2 2 -0 -5 -3 -5 -7 -4 1 -2 3 -7 1 3 3 0 6 -0 -1 0 2 -1 -1 0 1 -7 -1 1 -0 -3 2 -13 3 3 2
-6 -5 5 6 1 -0 -2 -4 -11 -9 -7 -6 -1 -5 -0 -3 -5 2 -9 4 -3 1 -1 3 -1 2 2 -0 -0 -1 -2 -2 2 1 -5 -2 4 -1 -0 -1 -8 2 -1 -3
4 2 -8 -3 1 5 2 0 -6 1 -1 -7 -6 2 3 3 -1 -1 -2 -3 -3 -0 -2 2 -3 4 5 5 0 -2 -3 -2 -2 1 -4 -2 1 1 1 -4 -3 1 2 -2
Height
3100 3098 3098 3095 3094 3096 3093 3092 3091 3076 3075 3072 3073 3071 3070 3069 3067 3066 3064 3060 3058 3054 3051 3047 3042 3037 3030 3023 3016 3012 3009 3007 3006 3004 3002 3001 3000 2999 2998 2997 2998 2998 2999 2999
3092 3091 3088 3084 3082 3082 3082 3081 3079 3075 3069 3070 3069 3068 3067 3065 3064 3063 3061 3059 3057 3054 3051 3048 3044 3040 3035 3029 3024 3020 3016 3013 3010 3007 3005 3002 2999 2997 2995 2994 2995 2995 2996 2996
3088 3087 3083 3076 3069 3070 3071 3071 3072 3070 3067 3067 3066 3065 3064 3062 3061 3060 3059 3057 3056 3054 3051 3049 3045 3041 3037 3033 3029 3024 3021 3018 3015 3012 3009 3007 3004 3000 2997 2995 2994 2992 2992 2991
3087 3083 3079 3068 3066 3066 3066 3066 3065 3062 3063 3062 3062 3061 3061 3060 3059 3059 3057 3056 3055 3053 3051 3048 3045 3041 3038 3034 3031 3027 3023 3020 3018 3015 3012 3009 3007 3005 3002 2998 2995 2992 2990 2988
3090 3084 3071 3063 3062 3064 3063 3061 3060 3059 3059 3059 3058 3058 3059 3056 3057 3056 3055 3054 3053 3051 3049 3047 3044 3041 3038 3035 3031 3028 3024 3021 3019 3016 3013 3010 3007 3004 3002 2999 2996 2993 2990 2987
3089 3086 3072 3062 3061 3061 3061 3057 3056 3057 3056 3055 3056 3055 3056 3055 3055 3054 3053 3052 3050 3049 3047 3044 3043 3040 3037 3034 3031 3028 3025 3021 3019 3016 3013 3010 3007 3004 3001 2998 2995 2992 2989 2986
3086 3083 3061 3059 3058 3060 3060 3061 3056 3055 3054 3053 3053 3053 3053 3052 3051 3050 3049 3048 3047 3046 3044 3042 3040 3037 3035 3032 3029 3027 3023 3020 3017 3014 3012 3009 3006 3003 3001 2998 2995 2992 2989 2985
3078 3077 3061 3056 3057 3058 3057 3054 3053 3052 3051 3050 3050 3050 3049 3048 3047 3046 3045 3044 3043 3041 3040 3038 3036 3034 3032 3029 3027 3024 3021 3019 3016 3014 3011 3008 3005 3002 2999 2996 2994 2990 2987 2984
3063 3056 3054 3054 3054 3053 3051 3050 3049 3048 3047 3045 3045 3045 3044 3045 3044 3043 3042 3040 3039 3038 3036 3034 3032 3030 3029 3026 3023 3020 3018 3015 3012 3010 3007 3004 3001 2999 2995 2993 2990 2988 2985 2982
3055 3053 3051 3051 3049 3048 3047 3045 3045 3043 3042 3041 3040 3039 3039 3037 3036 3035 3034 3033 3032 3031 3030 3028 3025 3025 3022 3019 3016 3015 3013 3011 3008 3005 3002 2999 2997 2995 2992 2990 2987 2985 2982 2980
3046 3044 3046 3045 3043 3042 3041 3040 3040 3038 3037 3036 3034 3034 3032 3031 3031 3030 3029 3027 3025 3024 3024 3023 3019 3018 3016 3013 3013 3011 3009 3005 3003 3000 2998 2995 2993 2990 2988 2986 2983 2980 2978 2975
3038 3041 3038 3038 3037 3036 3035 3034 3032 3031 3030 3029 3028 3027 3026 3026 3024 3022 3021 3020 3019 3018 3017 3016 3012 3012 3010 3007 3006 3004 3001 2999 2996 2994 2991 2989 2987 2985 2983 2980 2977 2974 2972 2969
3029 3032 3028 3028 3027 3027 3027 3025 3023 3021 3020 3019 3019 3017 3017 3016 3016 3014 3013 3012 3010 3009 3008 3007 3006 3005 3004 3002 2998 2996 2996 2994 2991 2988 2986 2983 2981 2978 2975 2972 2970 2967 2965 2962
3022 3019 3017 3019 3018 3017 3015 3015 3013 3013 3012 3011 3011 3010 3008 3007 3006 3005 3003 3002 3001 3000 3000 2999 2998 2998 2995 2992 2990 2988 2987 2985 2982 2980 2978 2975 2972 2970 2967 2964 2962 2959 2957 2955
3017 3013 3010 3009 3008 3008 3007 3006 3006 3006 3003 3003 3003 3002 3002 3000 2999 2998 2997 2996 2994 2993 2992 2990 2989 2988 2985 2982 2982 2981 2979 2977 2974 2972 2969 2966 2964 2961 2959 2956 2954 2951 2949 2947
3003 3002 3001 3000 3001 3001 2999 2998 2997 2998 2998 2996 2995 2995 2994 2993 2991 2990 2990 2989 2988 2986 2984 2983 2981 2978 2975 2974 2973 2971 2970 2968 2965 2963 2961 2958 2955 2952 2949 2946 2944 2942 2939 2937
2987 2987 2990 2989 2990 2991 2991 2992 2991 2990 2989 2989 2989 2989 2989 2988 2986 2984 2983 2982 2981 2979 2976 2975 2974 2971 2969 2967 2965 2963 2961 2959 2956 2954 2951 2948 2945 2942 2939 2936 2934 2932 2930 2927
2981 2979 2979 2980 2980 2981 2983 2984 2984 2984 2985 2985 2985 2984 2983 2983 2982 2979 2977 2974 2971 2970 2967 2966 2965 2963 2961 2958 2956 2953 2951 2949 2946 2943 2941 2937 2934 2932 2929 2926 2924 2921 2920 2917
2973 2972 2970 2971 2971 2973 2975 2977 2979 2980 2979 2979 2979 2978 2976 2975 2973 2971 2970 2967 2965 2962 2958 2957 2955 2953 2951 2948 2946 2944 2942 2940 2937 2935 2931 2928 2926 2923 2919 2917 2914 2912 2909 2907
2963 2963 2963 2963 2965 2968 2971 2972 2973 2975 2975 2974 2973 2973 2973 2970 2968 2965 2961 2957 2956 2954 2950 2947 2946 2946 2944 2941 2938 2936 2933 2931 2928 2925 2921 2918 2915 2913 2910 2908 2905 2902 2900 2897
2956 2955 2956 2959 2961 2964 2966 2967 2968 2968 2967 2966 2965 2965 2964 2962 2960 2958 2954 2950 2946 2945 2942 2940 2938 2937 2934 2931 2928 2925 2922 2920 2917 2914 2911 2908 2905 2902 2900 2898 2895 2892 2889 2888
2953 2952 2954 2957 2960 2961 2961 2961 2961 2961 2961 2960 2959 2959 2957 2953 2951 2949 2946 2944 2939 2936 2934 2931 2929 2926 2924 2921 2918 2916 2913 2910 2907 2904 2901 2897 2894 2891 2889 2886 2884 2881 2879 2877
2956 2955 2953 2955 2957 2956 2956 2955 2955 2955 2954 2953 2951 2950 2948 2946 2943 2941 2939 2935 2932 2927 2925 2922 2920 2917 2915 2912 2910 2906 2904 2901 2898 2895 2891 2887 2884 2881 2878 2875 2872 2870 2868 2867
2952 2950 2949 2949 2950 2951 2951 2950 2949 2948 2946 2945 2944 2942 2939 2937 2937 2933 2929 2926 2923 2920 2916 2913 2910 2907 2904 2902 2900 2897 2895 2892 2889 2885 2881 2877 2873 2870 2868 2866 2865 2862 2860 2858
2948 2947 2946 2944 2943 2943 2943 2943 2940 2940 2938 2936 2935 2933 2930 2926 2923 2923 2918 2915 2912 2910 2907 2904 2900 2897 2894 2892 2890 2888 2886 2883 2881 2877 2872 2868 2864 2861 2858 2856 2856 2855 2853 2851
2941 2939 2939 2938 2936 2934 2933 2931 2927 2927 2926 2924 2923 2921 2918 2915 2912 2908 2905 2903 2900 2899 2897 2894 2890 2888 2885 2884 2882 2880 2877 2874 2871 2868 2863 2860 2856 2853 2850 2849 2847 2846 2845 2844
2927 2926 2926 2925 2924 2923 2921 2917 2913 2911 2910 2908 2905 2906 2904 2901 2898 2895 2893 2891 2889 2887 2885 2884 2881 2878 2876 2874 2872 2871 2868 2864 2862 2858 2855 2853 2850 2846 2844 2842 2840 2839 2838 2837